| time (UTC) | temp F | wind direction | speed MPH | gust MPH | rain 1hr in | rain 24hr in | rain mn in | humidity % | barometer mb |
| 20260502193424 | 53 | 315 | 6.0 | 8.0 | 0.00 | 0.00 | 0.00 | 41 | 1015.5 |
| 20260502192920 | 53 | 312 | 5.0 | 8.0 | 0.00 | 0.00 | 0.00 | 44 | 1015.2 |
| 20260502192417 | 53 | 306 | 7.0 | 11.0 | 0.00 | 0.00 | 0.00 | 42 | 1015.5 |
| 20260502191914 | 53 | 334 | 1.0 | 3.0 | 0.00 | 0.00 | 0.00 | 44 | 1015.6 |
| 20260502191412 | 55 | 334 | 7.0 | 14.0 | 0.00 | 0.00 | 0.00 | 43 | 1015.3 |
| 20260502190909 | 55 | 241 | 5.0 | 9.0 | 0.00 | 0.00 | 0.00 | 39 | 1015.3 |
| 20260502190406 | 54 | 258 | 2.0 | 4.0 | 0.00 | 0.00 | 0.00 | 43 | 1015.5 |
| 20260502185902 | 52 | 4 | 1.0 | 4.0 | 0.00 | 0.00 | 0.00 | 45 | 1015.7 |
| 20260502185357 | 53 | 1 | 2.0 | 4.0 | 0.00 | 0.00 | 0.00 | 41 | 1015.5 |
| 20260502184855 | 53 | 318 | 2.0 | 8.0 | 0.00 | 0.00 | 0.00 | 44 | 1015.6 |
| 20260502184350 | 54 | 266 | 4.0 | 11.0 | 0.00 | 0.00 | 0.00 | 44 | 1015.4 |
| 20260502183847 | 52 | 317 | 4.0 | 6.0 | 0.00 | 0.00 | 0.00 | 47 | 1015.9 |
| 20260502183343 | 54 | 318 | 4.0 | 8.0 | 0.00 | 0.00 | 0.00 | 44 | 1015.7 |
| 20260502182838 | 54 | 229 | 1.0 | 6.0 | 0.00 | 0.00 | 0.00 | 47 | 1015.7 |
| 20260502182334 | 52 | 307 | 5.0 | 13.0 | 0.00 | 0.00 | 0.00 | 44 | 1015.8 |
| 20260502181831 | 51 | 268 | 6.0 | 11.0 | 0.00 | 0.00 | 0.00 | 46 | 1015.9 |
| 20260502181330 | 52 | 256 | 8.0 | 11.0 | 0.00 | 0.00 | 0.00 | 45 | 1015.9 |
| 20260502180827 | 54 | 313 | 9.0 | 10.0 | 0.00 | 0.00 | 0.00 | 46 | 1015.9 |
| 20260502180324 | 54 | 322 | 6.0 | 11.0 | 0.00 | 0.00 | 0.00 | 48 | 1016.0 |
| 20260502170243 | 51 | 323 | 4.0 | 8.0 | 0.00 | 0.00 | 0.00 | 52 | 1016.1 |
| 20260502164230 | 53 | 316 | 5.0 | 8.0 | 0.00 | 0.00 | 0.00 | 42 | 1016.2 |
| 20260502163726 | 53 | 271 | 6.0 | 17.0 | 0.00 | 0.00 | 0.00 | 44 | 1016.2 |
| 20260502163223 | 53 | 311 | 5.0 | 10.0 | 0.00 | 0.00 | 0.00 | 50 | 1016.2 |
| 20260502162720 | 52 | 300 | 4.0 | 9.0 | 0.00 | 0.00 | 0.00 | 43 | 1016.4 |
| 20260502162216 | 51 | 312 | 4.0 | 7.0 | 0.00 | 0.00 | 0.00 | 42 | 1016.6 |
| 20260502161713 | 51 | 320 | 4.0 | 13.0 | 0.00 | 0.00 | 0.00 | 47 | 1016.6 |
| 20260502161210 | 51 | 319 | 2.0 | 9.0 | 0.00 | 0.00 | 0.00 | 48 | 1016.6 |
| 20260502160708 | 51 | 311 | 6.0 | 7.0 | 0.00 | 0.00 | 0.00 | 46 | 1016.6 |
| 20260502160207 | 50 | 309 | 4.0 | 10.0 | 0.00 | 0.00 | 0.00 | 47 | 1016.6 |
| 20260502152126 | 49 | 314 | 4.0 | 7.0 | 0.00 | 0.00 | 0.00 | 49 | 1016.7 |
| 20260502151623 | 50 | 5 | 3.0 | 4.0 | 0.00 | 0.00 | 0.00 | 52 | 1016.7 |
| 20260502151120 | 49 | 321 | 2.0 | 9.0 | 0.00 | 0.00 | 0.00 | 51 | 1017.0 |
| 20260502150618 | 49 | 275 | 6.0 | 10.0 | 0.00 | 0.00 | 0.00 | 55 | 1016.7 |
| 20260502150114 | 49 | 296 | 1.0 | 3.0 | 0.00 | 0.00 | 0.00 | 56 | 1016.9 |
| 20260502130503 | 44 | 351 | 0.0 | 0.0 | 0.00 | 0.00 | 0.00 | 86 | 1017.0 |
| 20260502123445 | 40 | 303 | 0.0 | 0.0 | 0.00 | 0.00 | 0.00 | 97 | 1016.9 |
| 20260502122943 | 39 | 303 | 0.0 | 0.0 | 0.00 | 0.00 | 0.00 | 98 | 1017.1 |
| 20260502122438 | 38 | 302 | 0.0 | 0.0 | 0.00 | 0.00 | 0.00 | 98 | 1017.1 |
| 20260502121937 | 37 | 303 | 0.0 | 0.0 | 0.00 | 0.00 | 0.00 | 99 | 1017.1 |
| 20260502121433 | 36 | 302 | 0.0 | 0.0 | 0.00 | 0.00 | 0.00 | 99 | 1017.3 |
| 20260502120931 | 37 | 304 | 0.0 | 0.0 | 0.00 | 0.00 | 0.00 | 99 | 1017.2 |
| 20260502120427 | 36 | 304 | 0.0 | 0.0 | 0.00 | 0.00 | 0.00 | 99 | 1017.3 |
| 20260502115925 | 35 | 304 | 0.0 | 0.0 | 0.00 | 0.00 | 0.00 | 99 | 1017.3 |
| 20260502115422 | 34 | 304 | 0.0 | 0.0 | 0.00 | 0.00 | 0.00 | 99 | 1017.3 |
| 20260502114918 | 35 | 305 | 0.0 | 0.0 | 0.00 | 0.00 | 0.00 | 99 | 1017.1 |
| 20260502114415 | 35 | 305 | 0.0 | 0.0 | 0.00 | 0.00 | 0.00 | 99 | 1017.0 |
| 20260502113912 | 34 | 304 | 0.0 | 0.0 | 0.00 | 0.00 | 0.00 | 99 | 1017.1 |
| 20260502113410 | 34 | 304 | 0.0 | 0.0 | 0.00 | 0.00 | 0.00 | 99 | 1017.1 |
| 20260502112908 | 33 | 304 | 0.0 | 0.0 | 0.00 | 0.00 | 0.00 | 99 | 1017.1 |
| 20260502112405 | 33 | 304 | 0.0 | 0.0 | 0.00 | 0.00 | 0.00 | 99 | 1017.0 |
| 20260502111902 | 33 | 304 | 0.0 | 0.0 | 0.00 | 0.00 | 0.00 | 99 | 1017.0 |
| 20260502111359 | 33 | 304 | 0.0 | 0.0 | 0.00 | 0.00 | 0.00 | 99 | 1016.9 |
| 20260502110857 | 32 | 304 | 0.0 | 0.0 | 0.00 | 0.00 | 0.00 | 99 | 1016.9 |
| 20260502110355 | 32 | 304 | 0.0 | 0.0 | 0.00 | 0.00 | 0.00 | 99 | 1016.9 |
| 20260502105852 | 31 | 304 | 0.0 | 0.0 | 0.00 | 0.00 | 0.00 | 99 | 1017.0 |
| 20260502105349 | 31 | 304 | 0.0 | 0.0 | 0.00 | 0.00 | 0.00 | 99 | 1017.2 |
| 20260502104847 | 31 | 304 | 0.0 | 0.0 | 0.00 | 0.00 | 0.00 | 99 | 1017.2 |
| 20260502104344 | 31 | 304 | 0.0 | 0.0 | 0.00 | 0.00 | 0.00 | 99 | 1017.2 |
| 20260502103840 | 31 | 304 | 0.0 | 0.0 | 0.00 | 0.00 | 0.00 | 99 | 1017.2 |
| 20260502103338 | 31 | 304 | 0.0 | 0.0 | 0.00 | 0.00 | 0.00 | 99 | 1017.1 |
| 20260502102835 | 31 | 304 | 0.0 | 0.0 | 0.00 | 0.00 | 0.00 | 99 | 1017.0 |
| 20260502102331 | 31 | 304 | 0.0 | 0.0 | 0.00 | 0.00 | 0.00 | 99 | 1017.1 |
| 20260502101829 | 31 | 304 | 0.0 | 0.0 | 0.00 | 0.00 | 0.00 | 99 | 1017.1 |
| 20260502101327 | 32 | 304 | 0.0 | 0.0 | 0.00 | 0.00 | 0.00 | 99 | 1017.1 |
| 20260502100826 | 32 | 304 | 0.0 | 0.0 | 0.00 | 0.00 | 0.00 | 99 | 1017.1 |
| 20260502100324 | 32 | 304 | 0.0 | 0.0 | 0.00 | 0.00 | 0.00 | 99 | 1017.1 |
| 20260502091258 | 33 | 304 | 0.0 | 0.0 | 0.00 | 0.00 | 0.00 | 99 | 1017.2 |
| 20260502090755 | 33 | 304 | 0.0 | 0.0 | 0.00 | 0.00 | 0.00 | 99 | 1017.1 |
| 20260502090252 | 33 | 304 | 0.0 | 0.0 | 0.00 | 0.00 | 0.00 | 99 | 1017.2 |
| 20260502071153 | 34 | 305 | 0.0 | 0.0 | 0.00 | 0.00 | 0.00 | 98 | 1016.7 |
| 20260502070651 | 34 | 305 | 0.0 | 0.0 | 0.00 | 0.00 | 0.00 | 98 | 1016.8 |
| 20260502070149 | 34 | 305 | 0.0 | 0.0 | 0.00 | 0.00 | 0.00 | 98 | 1016.7 |
| 20260502065647 | 34 | 305 | 0.0 | 0.0 | 0.00 | 0.00 | 0.00 | 98 | 1016.8 |
| 20260502065144 | 34 | 305 | 0.0 | 0.0 | 0.00 | 0.00 | 0.00 | 98 | 1017.0 |
| 20260502064643 | 34 | 305 | 0.0 | 0.0 | 0.00 | 0.00 | 0.00 | 98 | 1017.1 |
| 20260502064139 | 34 | 305 | 0.0 | 0.0 | 0.00 | 0.00 | 0.00 | 98 | 1017.0 |
| 20260502063637 | 34 | 305 | 0.0 | 0.0 | 0.00 | 0.00 | 0.00 | 98 | 1017.1 |
| 20260502063135 | 34 | 305 | 0.0 | 0.0 | 0.00 | 0.00 | 0.00 | 98 | 1017.1 |
| 20260502062632 | 34 | 305 | 0.0 | 0.0 | 0.00 | 0.00 | 0.00 | 98 | 1017.1 |
| 20260502062129 | 34 | 305 | 0.0 | 0.0 | 0.00 | 0.00 | 0.00 | 98 | 1017.0 |
| 20260502061628 | 34 | 305 | 0.0 | 0.0 | 0.00 | 0.00 | 0.00 | 98 | 1017.3 |
| 20260502061125 | 34 | 305 | 0.0 | 0.0 | 0.00 | 0.00 | 0.00 | 98 | 1017.3 |
| 20260502060624 | 34 | 306 | 0.0 | 0.0 | 0.00 | 0.00 | 0.00 | 98 | 1017.3 |
| 20260502060121 | 34 | 306 | 0.0 | 0.0 | 0.00 | 0.00 | 0.00 | 97 | 1017.3 |
| 20260502055619 | 34 | 306 | 0.0 | 0.0 | 0.00 | 0.00 | 0.00 | 97 | 1017.4 |
| 20260502055117 | 34 | 306 | 0.0 | 0.0 | 0.00 | 0.00 | 0.00 | 97 | 1017.5 |
| 20260502054616 | 34 | 306 | 0.0 | 0.0 | 0.00 | 0.00 | 0.00 | 97 | 1017.4 |
| 20260502054113 | 35 | 306 | 0.0 | 0.0 | 0.00 | 0.00 | 0.00 | 97 | 1017.5 |
| 20260502053610 | 35 | 306 | 0.0 | 0.0 | 0.00 | 0.00 | 0.00 | 97 | 1017.5 |
| 20260502053107 | 35 | 305 | 0.0 | 0.0 | 0.00 | 0.00 | 0.00 | 97 | 1017.4 |
| 20260502052606 | 35 | 305 | 0.0 | 0.0 | 0.00 | 0.00 | 0.00 | 97 | 1017.6 |
| 20260502052104 | 35 | 305 | 0.0 | 0.0 | 0.00 | 0.00 | 0.00 | 97 | 1017.6 |
| 20260502051601 | 35 | 306 | 0.0 | 0.0 | 0.00 | 0.00 | 0.00 | 97 | 1017.3 |
| 20260502051059 | 35 | 306 | 0.0 | 0.0 | 0.00 | 0.00 | 0.00 | 97 | 1017.7 |
| 20260502050555 | 35 | 306 | 0.0 | 0.0 | 0.00 | 0.00 | 0.00 | 97 | 1017.6 |
| 20260502050052 | 36 | 305 | 0.0 | 0.0 | 0.00 | 0.00 | 0.00 | 97 | 1017.7 |
| 20260502045548 | 36 | 305 | 0.0 | 0.0 | 0.00 | 0.00 | 0.00 | 97 | 1017.7 |
| 20260502045046 | 36 | 306 | 0.0 | 0.0 | 0.00 | 0.00 | 0.00 | 97 | 1017.7 |
| 20260502044542 | 36 | 305 | 0.0 | 0.0 | 0.00 | 0.00 | 0.00 | 96 | 1017.7 |
| 20260502044039 | 36 | 305 | 0.0 | 0.0 | 0.00 | 0.00 | 0.00 | 96 | 1017.8 |
| 20260502043537 | 36 | 305 | 0.0 | 0.0 | 0.00 | 0.00 | 0.00 | 96 | 1017.6 |
| 20260502043032 | 36 | 305 | 0.0 | 0.0 | 0.00 | 0.00 | 0.00 | 96 | 1017.5 |
| 20260502042527 | 37 | 305 | 0.0 | 0.0 | 0.00 | 0.00 | 0.00 | 96 | 1017.5 |
| 20260502042025 | 37 | 306 | 0.0 | 0.0 | 0.00 | 0.00 | 0.00 | 96 | 1017.5 |
| 20260502041523 | 37 | 311 | 0.0 | 0.0 | 0.00 | 0.00 | 0.00 | 95 | 1017.5 |
| 20260502041020 | 37 | 311 | 0.0 | 0.0 | 0.00 | 0.00 | 0.00 | 95 | 1017.5 |
| 20260502040516 | 37 | 311 | 0.0 | 0.0 | 0.00 | 0.00 | 0.00 | 95 | 1017.4 |
| 20260502040014 | 38 | 311 | 0.0 | 0.0 | 0.00 | 0.00 | 0.00 | 95 | 1017.3 |
| 20260502035509 | 38 | 311 | 0.0 | 0.0 | 0.00 | 0.00 | 0.00 | 95 | 1017.3 |
| 20260502035007 | 38 | 311 | 0.0 | 0.0 | 0.00 | 0.00 | 0.00 | 94 | 1017.4 |
| 20260502034505 | 38 | 311 | 0.0 | 0.0 | 0.00 | 0.00 | 0.00 | 94 | 1017.4 |
| 20260502034003 | 39 | 311 | 0.0 | 0.0 | 0.00 | 0.00 | 0.00 | 94 | 1017.2 |
| 20260502033500 | 39 | 311 | 0.0 | 0.0 | 0.00 | 0.00 | 0.00 | 94 | 1017.2 |
| 20260502032957 | 40 | 311 | 0.0 | 0.0 | 0.00 | 0.00 | 0.00 | 93 | 1017.4 |
| 20260502032453 | 40 | 311 | 0.0 | 0.0 | 0.00 | 0.00 | 0.00 | 92 | 1017.3 |
| 20260502031950 | 40 | 311 | 0.0 | 0.0 | 0.00 | 0.00 | 0.00 | 91 | 1017.6 |
| 20260502031449 | 40 | 311 | 0.0 | 0.0 | 0.00 | 0.00 | 0.00 | 90 | 1017.5 |
| 20260502030947 | 41 | 311 | 0.0 | 0.0 | 0.00 | 0.00 | 0.00 | 90 | 1017.4 |
| 20260502030445 | 41 | 311 | 0.0 | 0.0 | 0.00 | 0.00 | 0.00 | 89 | 1017.4 |
| 20260502025942 | 42 | 311 | 0.0 | 0.0 | 0.00 | 0.00 | 0.00 | 89 | 1017.4 |
| 20260502025439 | 42 | 311 | 0.0 | 0.0 | 0.00 | 0.00 | 0.00 | 88 | 1017.5 |
| 20260502024937 | 42 | 311 | 0.0 | 0.0 | 0.00 | 0.00 | 0.00 | 88 | 1017.4 |
| 20260502024435 | 43 | 311 | 1.0 | 1.0 | 0.00 | 0.00 | 0.00 | 86 | 1017.2 |
| 20260502023933 | 44 | 313 | 0.0 | 0.0 | 0.00 | 0.00 | 0.00 | 84 | 1017.2 |
| 20260502023430 | 45 | 313 | 0.0 | 1.0 | 0.00 | 0.00 | 0.00 | 82 | 1017.3 |
| 20260502022927 | 45 | 313 | 0.0 | 0.0 | 0.00 | 0.00 | 0.00 | 78 | 1017.0 |
| 20260502022424 | 46 | 313 | 0.0 | 0.0 | 0.00 | 0.00 | 0.00 | 76 | 1016.9 |
| 20260502021921 | 46 | 314 | 2.0 | 2.0 | 0.00 | 0.00 | 0.00 | 76 | 1017.0 |
| 20260502021418 | 46 | 313 | 0.0 | 0.0 | 0.00 | 0.00 | 0.00 | 75 | 1016.7 |
| 20260502020915 | 46 | 316 | 3.0 | 3.0 | 0.00 | 0.00 | 0.00 | 74 | 1016.7 |
| 20260502020413 | 47 | 314 | 1.0 | 1.0 | 0.00 | 0.00 | 0.00 | 74 | 1016.8 |
| 20260502015909 | 47 | 315 | 0.0 | 4.0 | 0.00 | 0.00 | 0.00 | 73 | 1016.6 |
| 20260502015407 | 47 | 312 | 2.0 | 2.0 | 0.00 | 0.00 | 0.00 | 72 | 1016.6 |
| 20260502014904 | 47 | 311 | 4.0 | 6.0 | 0.00 | 0.00 | 0.00 | 72 | 1016.4 |
| 20260502014400 | 48 | 314 | 6.0 | 11.0 | 0.00 | 0.00 | 0.00 | 72 | 1016.6 |
| 20260502013856 | 48 | 322 | 3.0 | 3.0 | 0.00 | 0.00 | 0.00 | 70 | 1016.5 |
| 20260502013352 | 48 | 323 | 1.0 | 3.0 | 0.00 | 0.00 | 0.00 | 70 | 1016.1 |
| 20260502012849 | 48 | 314 | 0.0 | 3.0 | 0.00 | 0.00 | 0.00 | 70 | 1016.0 |
| 20260502012347 | 48 | 330 | 3.0 | 4.0 | 0.00 | 0.00 | 0.00 | 71 | 1016.1 |
| 20260502011844 | 49 | 314 | 3.0 | 3.0 | 0.00 | 0.00 | 0.00 | 69 | 1015.8 |
| 20260502011340 | 49 | 345 | 1.0 | 3.0 | 0.00 | 0.00 | 0.00 | 70 | 1015.8 |
| 20260502010838 | 49 | 317 | 2.0 | 6.0 | 0.00 | 0.00 | 0.00 | 69 | 1015.5 |
| 20260502010334 | 49 | 320 | 0.0 | 7.0 | 0.00 | 0.00 | 0.00 | 68 | 1015.3 |
| 20260502005831 | 49 | 329 | 7.0 | 9.0 | 0.00 | 0.00 | 0.00 | 69 | 1015.6 |
| 20260502005329 | 49 | 338 | 5.0 | 10.0 | 0.00 | 0.00 | 0.00 | 71 | 1015.7 |
| 20260502004826 | 50 | 320 | 5.0 | 10.0 | 0.00 | 0.00 | 0.00 | 73 | 1015.4 |
| 20260502004322 | 50 | 352 | 2.0 | 11.0 | 0.00 | 0.00 | 0.00 | 75 | 1015.2 |
| 20260502003820 | 50 | 303 | 6.0 | 11.0 | 0.00 | 0.00 | 0.00 | 80 | 1015.2 |
| 20260502003317 | 50 | 303 | 0.0 | 2.0 | 0.00 | 0.00 | 0.00 | 87 | 1014.8 |
| 20260502002813 | 49 | 273 | 0.0 | 0.0 | 0.00 | 0.00 | 0.00 | 83 | 1014.4 |
| 20260502002310 | 50 | 273 | 0.0 | 0.0 | 0.00 | 0.00 | 0.00 | 83 | 1014.3 |
| 20260502001808 | 50 | 273 | 1.0 | 1.0 | 0.00 | 0.00 | 0.00 | 82 | 1014.1 |
| 20260502001305 | 50 | 273 | 0.0 | 0.0 | 0.00 | 0.00 | 0.00 | 82 | 1013.8 |
| 20260502000757 | 50 | 273 | 0.0 | 0.0 | 0.00 | 0.00 | 0.00 | 80 | 1013.7 |
| 20260502000256 | 50 | 273 | 0.0 | 1.0 | 0.00 | 0.00 | 0.00 | 81 | 1013.8 |
| 20260501235756 | 50 | 273 | 0.0 | 1.0 | 0.00 | 0.00 | 0.00 | 82 | 1013.6 |
| 20260501235252 | 50 | 272 | 0.0 | 1.0 | 0.00 | 0.00 | 0.00 | 81 | 1013.6 |
| 20260501234748 | 50 | 273 | 0.0 | 0.0 | 0.00 | 0.00 | 0.00 | 79 | 1013.7 |
| 20260501234245 | 51 | 273 | 0.0 | 1.0 | 0.00 | 0.00 | 0.00 | 79 | 1013.6 |
| 20260501233743 | 51 | 272 | 1.0 | 1.0 | 0.00 | 0.00 | 0.00 | 79 | 1013.6 |
| 20260501233241 | 51 | 269 | 1.0 | 2.0 | 0.00 | 0.00 | 0.00 | 78 | 1013.6 |
| 20260501232736 | 51 | 245 | 1.0 | 2.0 | 0.00 | 0.00 | 0.00 | 79 | 1013.7 |
| 20260501232233 | 51 | 276 | 0.0 | 1.0 | 0.00 | 0.00 | 0.00 | 78 | 1013.5 |
| 20260501231731 | 51 | 276 | 1.0 | 1.0 | 0.00 | 0.00 | 0.00 | 79 | 1013.4 |
| 20260501231229 | 51 | 285 | 1.0 | 2.0 | 0.00 | 0.00 | 0.00 | 79 | 1013.4 |
| 20260501230727 | 50 | 273 | 1.0 | 2.0 | 0.00 | 0.00 | 0.00 | 80 | 1013.5 |
| 20260501230225 | 51 | 269 | 1.0 | 2.0 | 0.00 | 0.00 | 0.00 | 80 | 1013.5 |
| 20260501225722 | 51 | 244 | 1.0 | 1.0 | 0.00 | 0.00 | 0.00 | 79 | 1013.4 |
| 20260501225219 | 51 | 239 | 2.0 | 2.0 | 0.00 | 0.00 | 0.00 | 77 | 1013.4 |
| 20260501224715 | 51 | 314 | 0.0 | 3.0 | 0.00 | 0.00 | 0.00 | 76 | 1013.4 |
| 20260501224213 | 51 | 253 | 2.0 | 3.0 | 0.00 | 0.00 | 0.00 | 76 | 1013.2 |
| 20260501223709 | 51 | 260 | 2.0 | 2.0 | 0.00 | 0.00 | 0.00 | 79 | 1013.4 |
| 20260501223205 | 51 | 270 | 3.0 | 4.0 | 0.00 | 0.00 | 0.00 | 78 | 1013.2 |
| 20260501222701 | 51 | 259 | 2.0 | 3.0 | 0.00 | 0.00 | 0.00 | 79 | 1013.4 |
| 20260501222159 | 51 | 308 | 1.0 | 3.0 | 0.00 | 0.00 | 0.00 | 80 | 1013.5 |
| 20260501221655 | 51 | 262 | 2.0 | 2.0 | 0.00 | 0.00 | 0.00 | 80 | 1013.4 |
| 20260501221153 | 51 | 308 | 2.0 | 2.0 | 0.00 | 0.00 | 0.00 | 80 | 1013.6 |
| 20260501220650 | 51 | 285 | 2.0 | 7.0 | 0.00 | 0.00 | 0.00 | 81 | 1013.7 |
| 20260501220147 | 51 | 283 | 2.0 | 7.0 | 0.00 | 0.00 | 0.00 | 80 | 1013.4 |
| 20260501215644 | 52 | 323 | 4.0 | 8.0 | 0.00 | 0.00 | 0.00 | 75 | 1013.7 |
| 20260501215139 | 52 | 316 | 6.0 | 8.0 | 0.00 | 0.00 | 0.00 | 76 | 1013.5 |
| 20260501214634 | 52 | 319 | 4.0 | 14.0 | 0.00 | 0.00 | 0.00 | 76 | 1013.5 |
| 20260501214130 | 52 | 313 | 6.0 | 8.0 | 0.00 | 0.00 | 0.00 | 78 | 1013.3 |
| 20260501213627 | 52 | 309 | 5.0 | 9.0 | 0.00 | 0.00 | 0.00 | 77 | 1013.4 |
| 20260501213123 | 52 | 327 | 2.0 | 3.0 | 0.00 | 0.00 | 0.00 | 78 | 1013.3 |
| 20260501212620 | 53 | 281 | 5.0 | 8.0 | 0.00 | 0.00 | 0.00 | 77 | 1013.5 |
| 20260501212117 | 53 | 290 | 3.0 | 6.0 | 0.00 | 0.00 | 0.00 | 78 | 1013.4 |
| 20260501211613 | 53 | 309 | 7.0 | 10.0 | 0.00 | 0.00 | 0.00 | 76 | 1013.3 |
| 20260501211111 | 53 | 322 | 0.0 | 4.0 | 0.00 | 0.00 | 0.00 | 76 | 1013.2 |
| 20260501210608 | 53 | 304 | 4.0 | 6.0 | 0.00 | 0.00 | 0.00 | 75 | 1013.2 |
| 20260501210104 | 54 | 314 | 8.0 | 11.0 | 0.00 | 0.00 | 0.00 | 76 | 1013.1 |
| 20260501205601 | 54 | 318 | 7.0 | 9.0 | 0.00 | 0.00 | 0.00 | 75 | 1013.0 |
| 20260501205059 | 54 | 320 | 5.0 | 9.0 | 0.00 | 0.00 | 0.00 | 73 | 1012.8 |
| 20260501204555 | 54 | 314 | 2.0 | 6.0 | 0.00 | 0.00 | 0.00 | 74 | 1012.7 |
| 20260501204051 | 54 | 311 | 4.0 | 6.0 | 0.00 | 0.00 | 0.00 | 73 | 1013.0 |
| 20260501203547 | 54 | 280 | 2.0 | 6.0 | 0.00 | 0.00 | 0.00 | 74 | 1013.0 |
| 20260501203045 | 54 | 310 | 5.0 | 6.0 | 0.00 | 0.00 | 0.00 | 74 | 1012.8 |
| 20260501202542 | 55 | 316 | 5.0 | 6.0 | 0.00 | 0.00 | 0.00 | 74 | 1012.8 |
| 20260501202039 | 55 | 319 | 3.0 | 13.0 | 0.00 | 0.00 | 0.00 | 73 | 1012.7 |
| 20260501201536 | 56 | 325 | 8.0 | 10.0 | 0.00 | 0.00 | 0.00 | 65 | 1012.7 |
| 20260501201032 | 56 | 321 | 3.0 | 10.0 | 0.00 | 0.00 | 0.00 | 64 | 1012.8 |
| 20260501200529 | 56 | 317 | 10.0 | 14.0 | 0.00 | 0.00 | 0.00 | 64 | 1012.6 |
| 20260501200027 | 58 | 313 | 11.0 | 16.0 | 0.00 | 0.00 | 0.00 | 59 | 1012.2 |
| 20260501195524 | 58 | 334 | 5.0 | 13.0 | 0.00 | 0.00 | 0.00 | 54 | 1012.2 |
| 20260501195019 | 59 | 311 | 7.0 | 11.0 | 0.00 | 0.00 | 0.00 | 49 | 1011.9 |
| 20260501194515 | 59 | 262 | 4.0 | 8.0 | 0.00 | 0.00 | 0.00 | 48 | 1011.9 |
| 20260501194011 | 60 | 319 | 5.0 | 6.0 | 0.00 | 0.00 | 0.00 | 49 | 1011.8 |